Location: Keppel Henge
(44.7900°N, 80.9447°W)
Time: 11:49:59
(UTC-04:00)

Tiangong 1 - Pass Details

Date: 10 October 2017
Orbit: 293 x 320 km, 42.8° (Epoch: 21 October)

Event Time Altitude Azimuth Distance (km) Brightness Sun altitude
Rises 19:19:09 0° 257° (WSW) 2,045 7.0 -6.4°
Reaches altitude 10° 19:21:10 10° 252° (WSW) 1,210 5.1 -6.8°
Maximum altitude 19:23:49 52° 175° (S) 397 1.1 -7.3°
Enters shadow 19:26:20 11° 97° (E) 1,154 2.8 -7.7°
